Time,TemperatureF,DewpointF,PressureIn,WindDirection,WindDirectionDegrees,WindSpeedMPH,WindSpeedGustMPH,Humidity,HourlyPrecipIn,Conditions,Clouds,dailyrainin,SoftwareType,DateUTC
2013-01-16 00:02:00,37.8,32.0,29.62,NE,41,3.6,7.4,67,0.08,,,-99.99,wx200d/1.3,2013-01-16 05:02:00,
2013-01-16 00:07:00,37.8,32.0,29.62,NE,44,4.9,6.7,68,0.08,,,-99.99,wx200d/1.3,2013-01-16 05:07:00,
2013-01-16 00:12:00,37.6,32.0,29.62,East,89,3.1,7.8,69,0.08,,,-99.99,wx200d/1.3,2013-01-16 05:12:00,
2013-01-16 00:17:00,37.8,32.0,29.62,NE,49,3.6,4.9,69,0.08,,,-99.99,wx200d/1.3,2013-01-16 05:17:00,
2013-01-16 00:22:00,37.6,32.0,29.62,ESE,104,5.4,9.6,70,0.08,,,-99.99,wx200d/1.3,2013-01-16 05:22:00,
2013-01-16 00:27:00,37.6,32.0,29.59,NE,53,4.0,8.3,71,0.08,,,-99.99,wx200d/1.3,2013-01-16 05:27:00,
2013-01-16 00:32:00,37.6,32.0,29.59,ENE,70,3.6,6.7,71,0.08,,,-99.99,wx200d/1.3,2013-01-16 05:32:00,
2013-01-16 00:37:00,37.6,32.0,29.59,NE,56,4.5,6.7,71,0.08,,,-99.99,wx200d/1.3,2013-01-16 05:37:00,
2013-01-16 00:42:00,37.6,32.0,29.59,East,84,4.9,7.4,71,0.08,,,-99.99,wx200d/1.3,2013-01-16 05:42:00,
2013-01-16 00:47:00,37.4,32.0,29.59,NE,39,4.5,7.8,72,0.08,,,-99.99,wx200d/1.3,2013-01-16 05:47:00,
2013-01-16 00:52:00,37.4,32.0,29.59,ENE,74,4.9,10.1,73,0.08,,,-99.99,wx200d/1.3,2013-01-16 05:52:00,
2013-01-16 00:57:00,37.4,32.0,29.59,NE,43,4.9,8.3,74,0.12,,,-99.99,wx200d/1.3,2013-01-16 05:57:00,
2013-01-16 01:02:00,37.4,32.0,29.59,NE,36,4.5,7.4,74,0.12,,,-99.99,wx200d/1.3,2013-01-16 06:02:00,
2013-01-16 01:07:00,37.4,32.0,29.59,NE,43,4.9,7.8,75,0.12,,,-99.99,wx200d/1.3,2013-01-16 06:07:00,
2013-01-16 01:12:00,37.2,32.0,29.59,ENE,68,4.5,10.1,75,0.20,,,-99.99,wx200d/1.3,2013-01-16 06:12:00,
2013-01-16 01:17:00,37.2,32.0,29.59,West,273,3.1,7.4,76,0.20,,,-99.99,wx200d/1.3,2013-01-16 06:17:00,
2013-01-16 01:22:00,37.0,32.0,29.59,South,187,4.0,6.9,76,0.20,,,-99.99,wx200d/1.3,2013-01-16 06:22:00,
2013-01-16 01:27:00,37.0,32.0,29.59,ESE,115,0.0,6.3,76,0.20,,,-99.99,wx200d/1.3,2013-01-16 06:27:00,
2013-01-16 01:32:00,37.0,32.0,29.59,ENE,68,3.1,6.7,76,0.20,,,-99.99,wx200d/1.3,2013-01-16 06:32:00,
2013-01-16 01:37:00,37.0,32.0,29.59,NNE,19,3.6,6.3,76,0.20,,,-99.99,wx200d/1.3,2013-01-16 06:37:00,
2013-01-16 01:42:00,37.0,32.0,29.59,NNE,30,2.7,6.7,76,0.20,,,-99.99,wx200d/1.3,2013-01-16 06:42:00,
2013-01-16 01:47:00,37.0,32.0,29.59,NNE,21,2.7,6.7,77,0.20,,,-99.99,wx200d/1.3,2013-01-16 06:47:00,
2013-01-16 01:52:00,37.2,32.0,29.59,North,3,4.5,9.2,77,0.20,,,-99.99,wx200d/1.3,2013-01-16 06:52:00,
2013-01-16 01:57:00,37.2,32.0,29.56,NE,43,4.0,9.2,78,0.20,,,-99.99,wx200d/1.3,2013-01-16 06:57:00,
2013-01-16 02:02:00,37.2,32.0,29.56,SW,220,0.0,8.3,79,0.20,,,-99.99,wx200d/1.3,2013-01-16 07:02:00,
2013-01-16 02:07:00,37.0,32.0,29.56,ENE,77,0.0,4.5,79,0.20,,,-99.99,wx200d/1.3,2013-01-16 07:07:00,
2013-01-16 02:12:00,37.0,32.0,29.56,East,87,2.7,7.4,79,0.28,,,-99.99,wx200d/1.3,2013-01-16 07:12:00,
2013-01-16 02:17:00,37.0,32.0,29.56,NE,53,0.0,7.4,80,0.28,,,-99.99,wx200d/1.3,2013-01-16 07:17:00,
2013-01-16 02:22:00,37.0,32.0,29.56,ESE,102,0.0,5.8,80,0.28,,,-99.99,wx200d/1.3,2013-01-16 07:22:00,
2013-01-16 02:27:00,37.0,32.0,29.56,NE,37,0.0,0.0,80,0.20,,,-99.99,wx200d/1.3,2013-01-16 07:27:00,
2013-01-16 02:32:00,37.2,32.0,29.56,NE,54,0.0,0.0,81,0.20,,,-99.99,wx200d/1.3,2013-01-16 07:32:00,
2013-01-16 02:37:00,37.4,32.0,29.56,NE,56,0.0,0.0,81,0.20,,,-99.99,wx200d/1.3,2013-01-16 07:37:00,
2013-01-16 02:43:00,37.4,32.0,29.56,NE,39,0.0,0.0,81,0.20,,,-99.99,wx200d/1.3,2013-01-16 07:43:00,
2013-01-16 02:48:00,37.2,32.0,29.56,NE,56,0.0,0.0,81,0.24,,,-99.99,wx200d/1.3,2013-01-16 07:48:00,
2013-01-16 02:53:00,37.2,32.0,29.56,ENE,58,0.0,0.0,82,0.24,,,-99.99,wx200d/1.3,2013-01-16 07:53:00,
2013-01-16 02:58:00,37.2,32.0,29.56,ENE,72,0.0,0.0,82,0.24,,,-99.99,wx200d/1.3,2013-01-16 07:58:00,
2013-01-16 03:03:00,37.4,32.0,29.56,NE,52,0.0,0.0,82,0.24,,,-99.99,wx200d/1.3,2013-01-16 08:03:00,
2013-01-16 03:08:00,37.4,32.0,29.56,ENE,61,0.0,0.0,82,0.24,,,-99.99,wx200d/1.3,2013-01-16 08:08:00,
2013-01-16 03:13:00,37.2,32.0,29.56,NE,52,0.0,0.0,82,0.20,,,-99.99,wx200d/1.3,2013-01-16 08:13:00,
2013-01-16 03:18:00,37.2,32.0,29.56,ENE,68,0.0,0.0,82,0.20,,,-99.99,wx200d/1.3,2013-01-16 08:18:00,
2013-01-16 03:23:00,37.4,32.0,29.56,ENE,73,0.0,0.0,82,0.20,,,-99.99,wx200d/1.3,2013-01-16 08:23:00,
2013-01-16 03:28:00,37.4,32.0,29.56,East,79,0.0,0.0,82,0.16,,,-99.99,wx200d/1.3,2013-01-16 08:28:00,
2013-01-16 03:33:00,37.4,32.0,29.56,East,79,0.0,0.0,82,0.16,,,-99.99,wx200d/1.3,2013-01-16 08:33:00,
2013-01-16 03:38:00,37.4,32.0,29.56,ENE,57,0.0,0.0,82,0.16,,,-99.99,wx200d/1.3,2013-01-16 08:38:00,
2013-01-16 03:43:00,37.4,32.0,29.53,East,94,0.0,0.0,82,0.16,,,-99.99,wx200d/1.3,2013-01-16 08:43:00,
2013-01-16 03:48:00,37.4,32.0,29.53,ESE,108,0.0,0.0,82,0.16,,,-99.99,wx200d/1.3,2013-01-16 08:48:00,
2013-01-16 03:53:00,37.4,32.0,29.53,East,101,0.0,0.0,82,0.16,,,-99.99,wx200d/1.3,2013-01-16 08:53:00,
2013-01-16 03:58:00,37.6,32.0,29.53,East,100,0.0,0.0,82,0.16,,,-99.99,wx200d/1.3,2013-01-16 08:58:00,
2013-01-16 04:03:00,37.6,32.0,29.53,East,90,0.0,0.0,82,0.16,,,-99.99,wx200d/1.3,2013-01-16 09:03:00,
2013-01-16 04:08:00,37.6,32.0,29.53,East,83,0.0,0.0,82,0.08,,,-99.99,wx200d/1.3,2013-01-16 09:08:00,
2013-01-16 04:13:00,37.6,32.0,29.53,East,90,0.0,0.0,83,0.08,,,-99.99,wx200d/1.3,2013-01-16 09:13:00,
2013-01-16 04:19:00,37.6,32.0,29.53,ESE,109,0.0,0.0,83,0.08,,,-99.99,wx200d/1.3,2013-01-16 09:19:00,
2013-01-16 04:24:00,37.8,32.0,29.53,ENE,75,0.0,0.0,83,0.08,,,-99.99,wx200d/1.3,2013-01-16 09:24:00,
2013-01-16 04:29:00,37.8,32.0,29.53,ESE,111,0.0,0.0,83,0.08,,,-99.99,wx200d/1.3,2013-01-16 09:29:00,
2013-01-16 04:34:00,37.9,32.0,29.53,ESE,108,0.0,0.0,83,0.08,,,-99.99,wx200d/1.3,2013-01-16 09:34:00,
2013-01-16 04:39:00,37.9,32.0,29.53,East,101,0.0,0.0,83,0.08,,,-99.99,wx200d/1.3,2013-01-16 09:39:00,
2013-01-16 04:44:00,37.8,32.0,29.50,ENE,69,0.0,0.0,83,0.08,,,-99.99,wx200d/1.3,2013-01-16 09:44:00,
2013-01-16 04:49:00,37.9,34.0,29.50,ENE,74,0.0,0.0,84,0.08,,,-99.99,wx200d/1.3,2013-01-16 09:49:00,
2013-01-16 04:54:00,37.9,34.0,29.50,ENE,77,0.0,0.0,84,0.08,,,-99.99,wx200d/1.3,2013-01-16 09:54:00,
2013-01-16 04:59:00,37.9,32.0,29.50,East,94,0.0,0.0,83,0.08,,,-99.99,wx200d/1.3,2013-01-16 09:59:00,
2013-01-16 05:04:00,37.9,32.0,29.50,East,94,0.0,0.0,83,0.08,,,-99.99,wx200d/1.3,2013-01-16 10:04:00,
2013-01-16 05:09:00,37.8,32.0,29.50,East,82,0.0,0.0,83,0.08,,,-99.99,wx200d/1.3,2013-01-16 10:09:00,
2013-01-16 05:14:00,37.8,32.0,29.47,ESE,106,0.0,0.0,83,0.08,,,-99.99,wx200d/1.3,2013-01-16 10:14:00,
2013-01-16 05:19:00,37.8,32.0,29.47,ESE,110,0.0,0.0,83,0.08,,,-99.99,wx200d/1.3,2013-01-16 10:19:00,
2013-01-16 05:24:00,37.8,32.0,29.47,ESE,106,0.0,0.0,83,0.08,,,-99.99,wx200d/1.3,2013-01-16 10:24:00,
2013-01-16 05:29:00,37.8,32.0,29.47,ESE,106,0.0,0.0,83,0.04,,,-99.99,wx200d/1.3,2013-01-16 10:29:00,
2013-01-16 05:34:00,37.9,32.0,29.47,East,90,0.0,0.0,83,0.04,,,-99.99,wx200d/1.3,2013-01-16 10:34:00,
2013-01-16 05:39:00,37.9,32.0,29.47,NE,34,0.0,0.0,83,0.04,,,-99.99,wx200d/1.3,2013-01-16 10:39:00,
2013-01-16 05:44:00,37.9,32.0,29.47,NNE,28,0.0,0.0,83,0.04,,,-99.99,wx200d/1.3,2013-01-16 10:44:00,
2013-01-16 05:49:00,37.9,32.0,29.47,NE,37,0.0,0.0,83,0.04,,,-99.99,wx200d/1.3,2013-01-16 10:49:00,
2013-01-16 05:55:00,37.9,32.0,29.47,NNE,21,0.0,0.0,83,0.04,,,-99.99,wx200d/1.3,2013-01-16 10:55:00,
2013-01-16 06:00:00,37.9,32.0,29.50,NNE,30,0.0,0.0,83,0.04,,,-99.99,wx200d/1.3,2013-01-16 11:00:00,
2013-01-16 06:05:00,37.9,32.0,29.50,NE,56,0.0,0.0,83,0.04,,,-99.99,wx200d/1.3,2013-01-16 11:05:00,
2013-01-16 06:10:00,37.9,32.0,29.50,ENE,65,0.0,0.0,83,0.04,,,-99.99,wx200d/1.3,2013-01-16 11:10:00,
2013-01-16 06:15:00,38.1,32.0,29.50,ENE,65,0.0,0.0,83,0.04,,,-99.99,wx200d/1.3,2013-01-16 11:15:00,
2013-01-16 06:20:00,37.9,32.0,29.50,ENE,65,0.0,0.0,83,0.04,,,-99.99,wx200d/1.3,2013-01-16 11:20:00,
2013-01-16 06:25:00,38.1,32.0,29.50,ENE,65,0.0,0.0,83,0.04,,,-99.99,wx200d/1.3,2013-01-16 11:25:00,
2013-01-16 06:30:00,37.9,32.0,29.50,ENE,65,0.0,0.0,83,0.04,,,-99.99,wx200d/1.3,2013-01-16 11:30:00,
2013-01-16 06:35:00,37.9,32.0,29.50,ENE,65,0.0,0.0,83,0.04,,,-99.99,wx200d/1.3,2013-01-16 11:35:00,
2013-01-16 06:40:00,37.9,32.0,29.50,ENE,65,0.0,0.0,83,0.04,,,-99.99,wx200d/1.3,2013-01-16 11:40:00,
2013-01-16 06:45:00,37.9,32.0,29.50,ENE,65,0.0,0.0,83,0.04,,,-99.99,wx200d/1.3,2013-01-16 11:45:00,
2013-01-16 06:50:00,37.9,32.0,29.50,ENE,65,0.0,0.0,83,0.04,,,-99.99,wx200d/1.3,2013-01-16 11:50:00,
2013-01-16 06:55:00,37.9,32.0,29.50,ENE,65,0.0,0.0,83,0.04,,,-99.99,wx200d/1.3,2013-01-16 11:55:00,
2013-01-16 07:00:00,37.8,32.0,29.50,NE,51,0.0,0.0,83,0.04,,,-99.99,wx200d/1.3,2013-01-16 12:00:00,
2013-01-16 07:05:00,37.8,32.0,29.50,NE,51,0.0,0.0,83,0.04,,,-99.99,wx200d/1.3,2013-01-16 12:05:00,
2013-01-16 07:10:00,37.9,32.0,29.50,NE,51,0.0,0.0,83,0.04,,,-99.99,wx200d/1.3,2013-01-16 12:10:00,
2013-01-16 07:15:00,37.9,32.0,29.47,NE,51,0.0,0.0,83,0.04,,,-99.99,wx200d/1.3,2013-01-16 12:15:00,
2013-01-16 07:20:00,37.9,32.0,29.47,NNE,31,0.0,0.0,83,0.04,,,-99.99,wx200d/1.3,2013-01-16 12:20:00,
2013-01-16 07:25:00,37.8,32.0,29.47,NE,38,0.0,0.0,83,0.04,,,-99.99,wx200d/1.3,2013-01-16 12:25:00,
2013-01-16 07:30:00,37.8,32.0,29.47,NE,34,0.0,0.0,83,0.04,,,-99.99,wx200d/1.3,2013-01-16 12:30:00,
2013-01-16 07:36:00,37.8,32.0,29.47,NNE,20,0.0,0.0,83,0.00,,,-99.99,wx200d/1.3,2013-01-16 12:36:00,
2013-01-16 07:41:00,37.8,32.0,29.47,NNE,19,0.0,0.0,83,0.00,,,-99.99,wx200d/1.3,2013-01-16 12:41:00,
2013-01-16 07:46:00,37.8,32.0,29.47,East,84,0.0,0.0,83,0.00,,,-99.99,wx200d/1.3,2013-01-16 12:46:00,
2013-01-16 07:51:00,37.8,32.0,29.47,ENE,74,0.0,0.0,83,0.00,,,-99.99,wx200d/1.3,2013-01-16 12:51:00,
2013-01-16 07:56:00,37.8,32.0,29.47,ENE,74,0.0,0.0,83,0.00,,,-99.99,wx200d/1.3,2013-01-16 12:56:00,
2013-01-16 08:01:00,37.8,32.0,29.44,ENE,74,0.0,0.0,83,0.00,,,-99.99,wx200d/1.3,2013-01-16 13:01:00,
2013-01-16 08:06:00,37.6,32.0,29.44,ENE,74,0.0,0.0,83,0.00,,,-99.99,wx200d/1.3,2013-01-16 13:06:00,
2013-01-16 08:11:00,37.6,32.0,29.44,ENE,74,0.0,0.0,83,0.00,,,-99.99,wx200d/1.3,2013-01-16 13:11:00,
2013-01-16 08:16:00,37.8,32.0,29.44,ESE,120,0.0,0.0,83,0.00,,,-99.99,wx200d/1.3,2013-01-16 13:16:00,
2013-01-16 08:21:00,37.8,32.0,29.44,ESE,120,0.0,0.0,83,0.00,,,-99.99,wx200d/1.3,2013-01-16 13:21:00,
2013-01-16 08:26:00,37.8,32.0,29.44,ESE,120,0.0,0.0,83,0.00,,,-99.99,wx200d/1.3,2013-01-16 13:26:00,
2013-01-16 08:31:00,37.9,32.0,29.44,ESE,121,0.0,0.0,83,0.00,,,-99.99,wx200d/1.3,2013-01-16 13:31:00,
2013-01-16 08:36:00,37.9,32.0,29.44,ESE,121,0.0,0.0,83,0.00,,,-99.99,wx200d/1.3,2013-01-16 13:36:00,
2013-01-16 08:41:00,38.1,34.0,29.44,ESE,121,0.0,0.0,84,0.00,,,-99.99,wx200d/1.3,2013-01-16 13:41:00,
2013-01-16 08:46:00,38.1,34.0,29.44,ESE,120,0.0,0.0,84,0.00,,,-99.99,wx200d/1.3,2013-01-16 13:46:00,
2013-01-16 08:51:00,38.1,34.0,29.44,ESE,121,0.0,0.0,84,0.00,,,-99.99,wx200d/1.3,2013-01-16 13:51:00,
2013-01-16 08:56:00,38.1,34.0,29.44,ESE,121,0.0,0.0,84,0.00,,,-99.99,wx200d/1.3,2013-01-16 13:56:00,
2013-01-16 09:02:00,38.1,34.0,29.44,ESE,121,0.0,0.0,84,0.00,,,-99.99,wx200d/1.3,2013-01-16 14:02:00,
2013-01-16 09:07:00,38.1,34.0,29.44,South,173,0.0,0.0,84,0.00,,,-99.99,wx200d/1.3,2013-01-16 14:07:00,
2013-01-16 09:12:00,38.1,34.0,29.44,South,173,0.0,0.0,84,0.00,,,-99.99,wx200d/1.3,2013-01-16 14:12:00,
2013-01-16 09:17:00,38.1,34.0,29.44,South,173,0.0,0.0,84,0.00,,,-99.99,wx200d/1.3,2013-01-16 14:17:00,
2013-01-16 09:22:00,38.1,34.0,29.44,South,179,3.6,5.4,84,0.00,,,-99.99,wx200d/1.3,2013-01-16 14:22:00,
2013-01-16 09:27:00,38.1,34.0,29.47,West,267,3.1,5.4,84,0.00,,,-99.99,wx200d/1.3,2013-01-16 14:27:00,
2013-01-16 09:32:00,38.3,36.0,29.47,WSW,254,0.0,6.9,85,0.00,,,-99.99,wx200d/1.3,2013-01-16 14:32:00,
2013-01-16 09:37:00,38.5,36.0,29.47,West,265,4.0,6.7,85,0.00,,,-99.99,wx200d/1.3,2013-01-16 14:37:00,
2013-01-16 09:42:00,38.5,36.0,29.47,West,279,0.0,6.3,86,0.00,,,-99.99,wx200d/1.3,2013-01-16 14:42:00,
2013-01-16 09:47:00,38.5,36.0,29.47,West,274,0.0,5.8,86,0.00,,,-99.99,wx200d/1.3,2013-01-16 14:47:00,
2013-01-16 09:52:00,38.5,36.0,29.47,West,270,0.0,5.4,87,0.00,,,-99.99,wx200d/1.3,2013-01-16 14:52:00,
2013-01-16 09:57:00,38.5,36.0,29.47,WNW,289,0.0,0.0,87,0.00,,,-99.99,wx200d/1.3,2013-01-16 14:57:00,
2013-01-16 10:02:00,38.5,36.0,29.47,WNW,288,0.0,0.0,87,0.04,,,-99.99,wx200d/1.3,2013-01-16 15:02:00,
2013-01-16 10:07:00,38.5,36.0,29.47,WNW,287,4.9,6.3,87,0.04,,,-99.99,wx200d/1.3,2013-01-16 15:07:00,
2013-01-16 10:12:00,38.5,36.0,29.47,WNW,303,0.0,6.3,87,0.04,,,-99.99,wx200d/1.3,2013-01-16 15:12:00,
2013-01-16 10:17:00,38.5,36.0,29.47,WNW,302,0.0,5.4,88,0.04,,,-99.99,wx200d/1.3,2013-01-16 15:17:00,
2013-01-16 10:22:00,38.5,36.0,29.47,West,273,0.0,4.9,88,0.04,,,-99.99,wx200d/1.3,2013-01-16 15:22:00,
2013-01-16 12:22:00,38.8,36.0,29.32,SSE,164,0.0,8.7,89,0.00,,,-99.99,wx200d/1.3,2013-01-16 17:22:00,
2013-01-16 12:27:00,38.8,36.0,29.32,West,281,8.7,9.6,89,0.00,,,-99.99,wx200d/1.3,2013-01-16 17:27:00,
2013-01-16 12:32:00,39.0,36.0,29.32,WSW,246,0.0,9.2,89,0.00,,,-99.99,wx200d/1.3,2013-01-16 17:32:00,
2013-01-16 12:37:00,39.0,37.0,29.32,West,259,0.0,0.0,90,0.00,,,-99.99,wx200d/1.3,2013-01-16 17:37:00,
2013-01-16 12:42:00,39.2,37.0,29.32,West,277,0.0,7.8,90,0.00,,,-99.99,wx200d/1.3,2013-01-16 17:42:00,
2013-01-16 12:47:00,39.2,37.0,29.32,NW,321,0.0,6.3,90,0.00,,,-99.99,wx200d/1.3,2013-01-16 17:47:00,
2013-01-16 12:52:00,39.2,37.0,29.32,SE,132,0.0,0.0,90,0.00,,,-99.99,wx200d/1.3,2013-01-16 17:52:00,
2013-01-16 12:57:00,39.2,37.0,29.26,East,100,0.0,7.4,90,0.00,,,-99.99,wx200d/1.3,2013-01-16 17:57:00,
2013-01-16 13:02:00,39.2,37.0,29.26,NW,308,0.0,0.0,90,0.00,,,-99.99,wx200d/1.3,2013-01-16 18:02:00,
2013-01-16 13:07:00,39.4,37.0,29.26,NNW,342,4.0,12.5,90,0.00,,,-99.99,wx200d/1.3,2013-01-16 18:07:00,
2013-01-16 13:12:00,39.2,37.0,29.35,NW,312,4.9,9.6,90,0.00,,,-99.99,wx200d/1.3,2013-01-16 18:12:00,
2013-01-16 13:17:00,39.2,37.0,29.35,NNW,333,6.7,12.1,90,0.00,,,-99.99,wx200d/1.3,2013-01-16 18:17:00,
2013-01-16 13:22:00,39.0,37.0,29.35,NW,310,0.0,12.1,90,0.00,,,-99.99,wx200d/1.3,2013-01-16 18:22:00,
2013-01-16 13:27:00,39.0,37.0,29.35,NNW,327,3.1,6.9,90,0.00,,,-99.99,wx200d/1.3,2013-01-16 18:27:00,
2013-01-16 13:32:00,38.8,37.0,29.35,NNW,340,4.0,7.4,90,0.00,,,-99.99,wx200d/1.3,2013-01-16 18:32:00,
2013-01-16 13:37:00,38.8,37.0,29.35,NW,309,3.6,7.8,90,0.00,,,-99.99,wx200d/1.3,2013-01-16 18:37:00,
2013-01-16 13:42:00,38.8,37.0,29.32,NW,308,5.8,8.3,90,0.00,,,-99.99,wx200d/1.3,2013-01-16 18:42:00,
2013-01-16 13:47:00,38.8,37.0,29.32,NW,320,6.7,10.5,90,0.00,,,-99.99,wx200d/1.3,2013-01-16 18:47:00,
2013-01-16 13:52:00,38.8,37.0,29.32,NNW,341,0.0,8.7,90,0.00,,,-99.99,wx200d/1.3,2013-01-16 18:52:00,
2013-01-16 13:57:00,38.8,37.0,29.32,NW,305,0.0,6.3,90,0.00,,,-99.99,wx200d/1.3,2013-01-16 18:57:00,
2013-01-16 14:02:00,38.8,37.0,29.32,WNW,298,3.1,4.9,90,0.00,,,-99.99,wx200d/1.3,2013-01-16 19:02:00,
2013-01-16 14:07:00,38.8,37.0,29.32,NW,323,4.0,7.4,90,0.00,,,-99.99,wx200d/1.3,2013-01-16 19:07:00,
2013-01-16 14:12:00,38.8,37.0,29.32,East,96,0.0,7.8,90,0.00,,,-99.99,wx200d/1.3,2013-01-16 19:12:00,
2013-01-16 14:17:00,39.0,37.0,29.32,NW,324,2.7,4.5,90,0.00,,,-99.99,wx200d/1.3,2013-01-16 19:17:00,
2013-01-16 14:22:00,39.0,37.0,29.32,WNW,290,0.0,6.7,90,0.00,,,-99.99,wx200d/1.3,2013-01-16 19:22:00,
2013-01-16 14:27:00,39.0,37.0,29.35,West,278,0.0,8.7,90,0.00,,,-99.99,wx200d/1.3,2013-01-16 19:27:00,
2013-01-16 14:32:00,39.0,37.0,29.35,West,278,0.0,0.0,90,0.00,,,-99.99,wx200d/1.3,2013-01-16 19:32:00,
2013-01-16 14:37:00,39.0,37.0,29.35,NW,325,0.0,4.9,90,0.00,,,-99.99,wx200d/1.3,2013-01-16 19:37:00,
2013-01-16 14:42:00,39.2,37.0,29.35,WNW,296,0.0,7.4,91,0.00,,,-99.99,wx200d/1.3,2013-01-16 19:42:00,
2013-01-16 14:47:00,39.2,37.0,29.35,SE,134,0.0,0.0,91,0.00,,,-99.99,wx200d/1.3,2013-01-16 19:47:00,
2013-01-16 14:52:00,39.2,37.0,29.35,ESE,115,0.0,0.0,91,0.00,,,-99.99,wx200d/1.3,2013-01-16 19:52:00,
2013-01-16 14:57:00,39.2,37.0,29.32,ESE,115,0.0,0.0,91,0.00,,,-99.99,wx200d/1.3,2013-01-16 19:57:00,
2013-01-16 15:02:00,39.2,37.0,29.32,South,170,0.0,0.0,91,0.00,,,-99.99,wx200d/1.3,2013-01-16 20:02:00,
2013-01-16 15:08:00,39.2,37.0,29.32,South,191,0.0,0.0,91,0.00,,,-99.99,wx200d/1.3,2013-01-16 20:08:00,
2013-01-16 15:13:00,39.4,37.0,29.32,SSW,207,0.0,0.0,91,0.00,,,-99.99,wx200d/1.3,2013-01-16 20:13:00,
2013-01-16 15:18:00,39.4,37.0,29.32,SSW,208,4.0,6.3,91,0.00,,,-99.99,wx200d/1.3,2013-01-16 20:18:00,
2013-01-16 15:23:00,39.6,37.0,29.32,SW,230,2.7,6.3,91,0.00,,,-99.99,wx200d/1.3,2013-01-16 20:23:00,
2013-01-16 15:28:00,39.6,37.0,29.35,SW,220,3.6,6.7,91,0.00,,,-99.99,wx200d/1.3,2013-01-16 20:28:00,
2013-01-16 15:33:00,39.6,37.0,29.35,South,190,0.0,4.5,91,0.00,,,-99.99,wx200d/1.3,2013-01-16 20:33:00,
2013-01-16 15:38:00,39.6,37.0,29.35,WSW,241,5.8,6.7,91,0.00,,,-99.99,wx200d/1.3,2013-01-16 20:38:00,
2013-01-16 15:43:00,39.7,37.0,29.35,SW,218,4.9,6.3,92,0.00,,,-99.99,wx200d/1.3,2013-01-16 20:43:00,
2013-01-16 15:48:00,39.7,37.0,29.35,WSW,238,4.0,6.3,92,0.00,,,-99.99,wx200d/1.3,2013-01-16 20:48:00,
2013-01-16 15:53:00,39.7,37.0,29.35,West,276,4.9,7.4,92,0.00,,,-99.99,wx200d/1.3,2013-01-16 20:53:00,
2013-01-16 15:58:00,39.7,37.0,29.38,West,260,5.8,7.4,92,0.00,,,-99.99,wx200d/1.3,2013-01-16 20:58:00,
2013-01-16 16:03:00,39.7,37.0,29.38,WSW,255,6.7,6.9,92,0.00,,,-99.99,wx200d/1.3,2013-01-16 21:03:00,
2013-01-16 16:08:00,39.7,37.0,29.38,WSW,241,4.9,6.3,92,0.00,,,-99.99,wx200d/1.3,2013-01-16 21:08:00,
2013-01-16 16:13:00,39.7,37.0,29.35,WSW,240,4.0,6.3,92,0.00,,,-99.99,wx200d/1.3,2013-01-16 21:13:00,
2013-01-16 16:18:00,39.7,37.0,29.35,WSW,241,4.0,4.9,92,0.00,,,-99.99,wx200d/1.3,2013-01-16 21:18:00,
2013-01-16 16:23:00,39.7,37.0,29.35,WSW,240,3.6,5.4,92,0.00,,,-99.99,wx200d/1.3,2013-01-16 21:23:00,
2013-01-16 16:28:00,39.9,37.0,29.38,WSW,253,5.4,6.7,92,0.00,,,-99.99,wx200d/1.3,2013-01-16 21:28:00,
2013-01-16 16:33:00,39.9,37.0,29.38,West,272,6.3,8.3,92,0.00,,,-99.99,wx200d/1.3,2013-01-16 21:33:00,
2013-01-16 16:38:00,39.9,37.0,29.38,WSW,248,5.4,7.8,92,0.00,,,-99.99,wx200d/1.3,2013-01-16 21:38:00,
2013-01-16 16:43:00,39.9,37.0,29.38,WSW,245,5.4,6.7,92,0.00,,,-99.99,wx200d/1.3,2013-01-16 21:43:00,
2013-01-16 16:48:00,40.1,39.0,29.38,WSW,254,3.6,6.7,92,0.00,,,-99.99,wx200d/1.3,2013-01-16 21:48:00,
2013-01-16 16:53:00,40.1,39.0,29.38,WSW,254,0.0,4.9,92,0.00,,,-99.99,wx200d/1.3,2013-01-16 21:53:00,
2013-01-16 16:58:00,40.1,39.0,29.38,West,280,5.4,6.7,92,0.00,,,-99.99,wx200d/1.3,2013-01-16 21:58:00,
2013-01-16 17:03:00,40.1,39.0,29.38,WSW,256,2.7,6.9,93,0.00,,,-99.99,wx200d/1.3,2013-01-16 22:03:00,
2013-01-16 17:08:00,40.1,39.0,29.38,WSW,250,2.7,5.4,92,0.00,,,-99.99,wx200d/1.3,2013-01-16 22:08:00,
2013-01-16 17:14:00,40.1,39.0,29.38,WSW,250,0.0,0.0,92,0.00,,,-99.99,wx200d/1.3,2013-01-16 22:14:00,
2013-01-16 17:19:00,39.9,37.0,29.38,SW,222,2.7,3.1,92,0.00,,,-99.99,wx200d/1.3,2013-01-16 22:19:00,
2013-01-16 17:24:00,39.9,37.0,29.38,SW,222,4.0,4.9,92,0.00,,,-99.99,wx200d/1.3,2013-01-16 22:24:00,
2013-01-16 17:29:00,39.9,37.0,29.38,SW,225,4.0,4.5,92,0.00,,,-99.99,wx200d/1.3,2013-01-16 22:29:00,
2013-01-16 17:34:00,40.1,39.0,29.38,SW,228,3.6,4.5,92,0.00,,,-99.99,wx200d/1.3,2013-01-16 22:34:00,
2013-01-16 17:39:00,40.3,39.0,29.38,WSW,257,4.9,6.3,92,0.00,,,-99.99,wx200d/1.3,2013-01-16 22:39:00,
2013-01-16 17:44:00,40.3,39.0,29.38,WSW,250,4.5,6.7,92,0.00,,,-99.99,wx200d/1.3,2013-01-16 22:44:00,
2013-01-16 17:49:00,40.3,39.0,29.38,WSW,237,4.5,5.8,92,0.00,,,-99.99,wx200d/1.3,2013-01-16 22:49:00,
2013-01-16 17:54:00,40.3,39.0,29.38,SW,232,4.0,4.9,92,0.00,,,-99.99,wx200d/1.3,2013-01-16 22:54:00,
2013-01-16 17:59:00,40.3,39.0,29.38,SW,232,4.0,5.8,92,0.00,,,-99.99,wx200d/1.3,2013-01-16 22:59:00,
2013-01-16 18:04:00,40.3,39.0,29.38,WSW,238,3.6,4.9,92,0.00,,,-99.99,wx200d/1.3,2013-01-16 23:04:00,
2013-01-16 18:09:00,40.5,39.0,29.38,SW,234,3.6,5.4,92,0.00,,,-99.99,wx200d/1.3,2013-01-16 23:09:00,
2013-01-16 18:14:00,40.5,39.0,29.38,SW,232,4.0,4.9,92,0.00,,,-99.99,wx200d/1.3,2013-01-16 23:14:00,
2013-01-16 18:19:00,40.5,39.0,29.38,SW,235,4.5,5.8,92,0.00,,,-99.99,wx200d/1.3,2013-01-16 23:19:00,
2013-01-16 18:24:00,40.5,39.0,29.38,WSW,240,4.5,5.4,92,0.00,,,-99.99,wx200d/1.3,2013-01-16 23:24:00,
2013-01-16 18:29:00,40.5,39.0,29.38,SSW,204,4.5,5.4,92,0.00,,,-99.99,wx200d/1.3,2013-01-16 23:29:00,
2013-01-16 18:34:00,40.6,39.0,29.38,SW,220,4.9,6.3,93,0.00,,,-99.99,wx200d/1.3,2013-01-16 23:34:00,
2013-01-16 18:39:00,40.6,39.0,29.38,SW,226,2.7,6.3,93,0.00,,,-99.99,wx200d/1.3,2013-01-16 23:39:00,
2013-01-16 18:44:00,40.6,39.0,29.38,SW,225,5.4,5.8,93,0.00,,,-99.99,wx200d/1.3,2013-01-16 23:44:00,
2013-01-16 18:49:00,40.6,39.0,29.38,SSW,208,5.4,6.9,93,0.00,,,-99.99,wx200d/1.3,2013-01-16 23:49:00,
2013-01-16 18:54:00,40.6,39.0,29.38,WSW,238,5.4,6.7,93,0.00,,,-99.99,wx200d/1.3,2013-01-16 23:54:00,
2013-01-16 18:59:00,40.6,39.0,29.38,SW,233,5.4,5.8,93,0.00,,,-99.99,wx200d/1.3,2013-01-16 23:59:00,
2013-01-16 19:04:00,40.6,39.0,29.38,SW,232,5.4,6.3,93,0.00,,,-99.99,wx200d/1.3,2013-01-17 00:04:00,
2013-01-16 19:09:00,40.6,39.0,29.38,WSW,245,4.9,5.8,93,0.00,,,-99.99,wx200d/1.3,2013-01-17 00:09:00,
2013-01-16 19:14:00,40.6,39.0,29.38,SW,229,4.5,5.4,93,0.00,,,-99.99,wx200d/1.3,2013-01-17 00:14:00,
2013-01-16 19:19:00,40.8,39.0,29.38,SW,230,4.5,6.7,93,0.00,,,-99.99,wx200d/1.3,2013-01-17 00:19:00,
2013-01-16 19:24:00,40.8,39.0,29.38,WSW,247,5.4,5.8,93,0.00,,,-99.99,wx200d/1.3,2013-01-17 00:24:00,
2013-01-16 19:29:00,40.8,39.0,29.38,WSW,240,5.4,6.3,93,0.00,,,-99.99,wx200d/1.3,2013-01-17 00:29:00,
2013-01-16 19:34:00,40.8,39.0,29.38,SW,235,3.6,6.9,93,0.00,,,-99.99,wx200d/1.3,2013-01-17 00:34:00,
2013-01-16 19:39:00,40.8,39.0,29.38,WSW,251,4.9,6.7,93,0.00,,,-99.99,wx200d/1.3,2013-01-17 00:39:00,
2013-01-16 19:44:00,40.8,39.0,29.41,SW,234,4.5,5.8,93,0.00,,,-99.99,wx200d/1.3,2013-01-17 00:44:00,
2013-01-16 19:49:00,40.8,39.0,29.41,WSW,247,5.4,6.7,93,0.00,,,-99.99,wx200d/1.3,2013-01-17 00:49:00,
2013-01-16 19:54:00,41.0,39.0,29.41,WSW,240,4.5,5.4,93,0.00,,,-99.99,wx200d/1.3,2013-01-17 00:54:00,
2013-01-16 19:59:00,41.0,39.0,29.41,WSW,253,3.1,5.8,93,0.00,,,-99.99,wx200d/1.3,2013-01-17 00:59:00,
2013-01-16 20:04:00,41.0,39.0,29.41,WSW,249,4.9,5.8,93,0.00,,,-99.99,wx200d/1.3,2013-01-17 01:04:00,
2013-01-16 20:10:00,40.8,39.0,29.41,WSW,249,3.6,4.9,93,0.00,,,-99.99,wx200d/1.3,2013-01-17 01:10:00,
2013-01-16 20:15:00,40.8,39.0,29.41,WSW,249,0.0,0.0,93,0.00,,,-99.99,wx200d/1.3,2013-01-17 01:15:00,
2013-01-16 20:20:00,41.0,39.0,29.41,WSW,249,0.0,0.0,93,0.00,,,-99.99,wx200d/1.3,2013-01-17 01:20:00,
2013-01-16 20:25:00,41.0,39.0,29.41,WSW,249,0.0,0.0,93,0.00,,,-99.99,wx200d/1.3,2013-01-17 01:25:00,
2013-01-16 20:30:00,41.0,39.0,29.41,WSW,249,0.0,0.0,93,0.00,,,-99.99,wx200d/1.3,2013-01-17 01:30:00,
2013-01-16 20:35:00,41.0,39.0,29.41,WSW,249,0.0,0.0,93,0.00,,,-99.99,wx200d/1.3,2013-01-17 01:35:00,
2013-01-16 20:40:00,41.0,39.0,29.41,WSW,249,0.0,0.0,93,0.00,,,-99.99,wx200d/1.3,2013-01-17 01:40:00,
2013-01-16 20:45:00,41.0,39.0,29.41,WSW,249,0.0,0.0,93,0.00,,,-99.99,wx200d/1.3,2013-01-17 01:45:00,
2013-01-16 20:50:00,41.0,39.0,29.41,WSW,248,0.0,2.7,93,0.00,,,-99.99,wx200d/1.3,2013-01-17 01:50:00,
2013-01-16 20:55:00,41.0,39.0,29.41,WSW,248,0.0,0.0,93,0.00,,,-99.99,wx200d/1.3,2013-01-17 01:55:00,
2013-01-16 21:00:00,41.0,39.0,29.41,WSW,249,0.0,3.1,93,0.00,,,-99.99,wx200d/1.3,2013-01-17 02:00:00,
2013-01-16 21:05:00,41.0,39.0,29.41,WSW,249,0.0,0.0,93,0.00,,,-99.99,wx200d/1.3,2013-01-17 02:05:00,
2013-01-16 21:10:00,41.0,39.0,29.41,WSW,249,0.0,0.0,93,0.00,,,-99.99,wx200d/1.3,2013-01-17 02:10:00,
2013-01-16 21:15:00,41.2,39.0,29.41,WSW,239,0.0,4.0,93,0.00,,,-99.99,wx200d/1.3,2013-01-17 02:15:00,
2013-01-16 21:21:00,41.2,39.0,29.41,WSW,240,3.6,4.5,93,0.00,,,-99.99,wx200d/1.3,2013-01-17 02:21:00,
2013-01-16 21:26:00,41.2,39.0,29.41,WSW,239,0.0,0.0,93,0.00,,,-99.99,wx200d/1.3,2013-01-17 02:26:00,
2013-01-16 21:31:00,41.2,39.0,29.41,WSW,239,0.0,2.7,93,0.00,,,-99.99,wx200d/1.3,2013-01-17 02:31:00,
2013-01-16 21:36:00,41.0,39.0,29.41,WSW,239,0.0,3.1,93,0.00,,,-99.99,wx200d/1.3,2013-01-17 02:36:00,
2013-01-16 21:41:00,41.0,39.0,29.41,WSW,239,0.0,0.0,93,0.00,,,-99.99,wx200d/1.3,2013-01-17 02:41:00,
2013-01-16 21:46:00,41.0,39.0,29.38,WSW,239,0.0,0.0,93,0.00,,,-99.99,wx200d/1.3,2013-01-17 02:46:00,
2013-01-16 21:51:00,41.0,39.0,29.38,WSW,239,0.0,0.0,93,0.00,,,-99.99,wx200d/1.3,2013-01-17 02:51:00,
2013-01-16 21:56:00,41.0,39.0,29.41,WSW,239,0.0,0.0,93,0.00,,,-99.99,wx200d/1.3,2013-01-17 02:56:00,
2013-01-16 22:01:00,41.2,39.0,29.41,WSW,239,0.0,0.0,93,0.00,,,-99.99,wx200d/1.3,2013-01-17 03:01:00,
2013-01-16 22:06:00,41.2,39.0,29.41,WSW,239,0.0,0.0,93,0.00,,,-99.99,wx200d/1.3,2013-01-17 03:06:00,
2013-01-16 22:11:00,41.2,39.0,29.38,WSW,239,0.0,0.0,93,0.00,,,-99.99,wx200d/1.3,2013-01-17 03:11:00,
2013-01-16 22:16:00,41.0,39.0,29.38,WSW,239,0.0,0.0,93,0.00,,,-99.99,wx200d/1.3,2013-01-17 03:16:00,
2013-01-16 22:21:00,41.0,39.0,29.38,WSW,239,0.0,0.0,93,0.00,,,-99.99,wx200d/1.3,2013-01-17 03:21:00,
2013-01-16 22:26:00,41.2,39.0,29.41,WSW,239,0.0,0.0,93,0.00,,,-99.99,wx200d/1.3,2013-01-17 03:26:00,
2013-01-16 22:32:00,41.2,39.0,29.41,WSW,239,0.0,0.0,93,0.00,,,-99.99,wx200d/1.3,2013-01-17 03:32:00,
2013-01-16 22:37:00,41.2,39.0,29.41,WSW,239,0.0,0.0,93,0.00,,,-99.99,wx200d/1.3,2013-01-17 03:37:00,
2013-01-16 22:42:00,41.2,39.0,29.41,WSW,239,0.0,0.0,93,0.00,,,-99.99,wx200d/1.3,2013-01-17 03:42:00,
2013-01-16 22:47:00,41.4,39.0,29.41,WSW,239,0.0,0.0,93,0.00,,,-99.99,wx200d/1.3,2013-01-17 03:47:00,
2013-01-16 22:52:00,41.4,39.0,29.41,WSW,239,0.0,0.0,93,0.00,,,-99.99,wx200d/1.3,2013-01-17 03:52:00,
2013-01-16 22:57:00,41.4,39.0,29.41,WSW,239,0.0,0.0,93,0.00,,,-99.99,wx200d/1.3,2013-01-17 03:57:00,
2013-01-16 23:02:00,41.4,39.0,29.41,WSW,239,0.0,0.0,93,0.00,,,-99.99,wx200d/1.3,2013-01-17 04:02:00,
2013-01-16 23:07:00,41.4,39.0,29.41,WSW,239,0.0,0.0,93,0.00,,,-99.99,wx200d/1.3,2013-01-17 04:07:00,
2013-01-16 23:12:00,41.5,39.0,29.41,WSW,239,0.0,0.0,93,0.00,,,-99.99,wx200d/1.3,2013-01-17 04:12:00,
2013-01-16 23:17:00,41.5,39.0,29.41,WSW,239,0.0,0.0,93,0.00,,,-99.99,wx200d/1.3,2013-01-17 04:17:00,
2013-01-16 23:22:00,41.5,39.0,29.41,WSW,239,0.0,0.0,93,0.00,,,-99.99,wx200d/1.3,2013-01-17 04:22:00,
2013-01-16 23:27:00,41.5,39.0,29.41,WSW,239,0.0,0.0,93,0.00,,,-99.99,wx200d/1.3,2013-01-17 04:27:00,
2013-01-16 23:32:00,41.5,39.0,29.41,WSW,239,0.0,0.0,93,0.00,,,-99.99,wx200d/1.3,2013-01-17 04:32:00,
2013-01-16 23:37:00,41.5,39.0,29.41,WSW,239,0.0,0.0,93,0.00,,,-99.99,wx200d/1.3,2013-01-17 04:37:00,
2013-01-16 23:42:00,41.4,39.0,29.41,WSW,239,0.0,0.0,93,0.00,,,-99.99,wx200d/1.3,2013-01-17 04:42:00,
2013-01-16 23:47:00,41.4,39.0,29.41,WSW,239,0.0,0.0,93,0.00,,,-99.99,wx200d/1.3,2013-01-17 04:47:00,
2013-01-16 23:52:00,41.5,39.0,29.41,WSW,239,0.0,0.0,93,0.00,,,-99.99,wx200d/1.3,2013-01-17 04:52:00,
2013-01-16 23:57:00,41.5,39.0,29.41,WSW,239,0.0,0.0,93,0.00,,,-99.99,wx200d/1.3,2013-01-17 04:57:00,